Terminal Aerodrome Forecast
Issued by NWS Upton, NY

Current Version | Previous Version | Text Only | Print | Product List | Glossary On
Versions: 1 2 3 4 5 6 7 8 9 10 11 12 13 14 15 16 17 18 19 20 21 22 23 24 25 26 27 28 29 30 31 32 33 34 35 36
390 FTUS41 KOKX 281309 AAC TAFJFK TAF AMD KJFK 281309Z 2813/2918 04008KT P6SM SCT015 SCT120 SCT250 TEMPO 2813/2814 BKN013 FM281400 06009KT P6SM SCT020 BKN250 FM281800 15009KT P6SM SCT040 BKN250 FM290200 08006KT P6SM SCT040 BKN130 FM290500 05008KT 6SM -RA BR BKN035 FM290800 03013G20KT 5SM -RA BR SCT020 OVC035 FM291100 03017G27KT 3SM -RA BR BKN020=

USA.gov is the U.S. government's official web portal to all federal, state and local government web resources and services.